sat.trackr.live / text

‹ back to catalog

STARLINK-33988

NORAD 63938 · 2025-098N

PAYLOAD ACTIVE UNKNOWN

§ Identity

Operator
Country
US
Launch date
2025-05-13
Launch site
AFWTR
Launch vehicle
Mass (kg)
RCS (m²)

Purposes: comms

External: N2YO · Heavens-Above · Gunter

§ Orbital elements

Epoch: 2026-05-25T03:35:34.836864Z

Period
96.10 min
Inclination
70.0019°
Eccentricity
0.0003372
Mean motion
14.98365042 rev/d
Perigee alt
569.6 km
Apogee alt
574.3 km
Semi-major
6,950.1 km
B*
1.0937e-3
RAAN
81.7484°
Arg perigee
257.1841°
Mean anomaly
102.8942°
Rev number
5,800

§ Raw data

STARLINK-339881 63938U 25098N   26145.14970876  .00012993  00000+0  10937-2 0  99982 63938  70.0019  81.7484 0003372 257.1841 102.8942 14.98365042 58004

JSON: /api/v1/satellites/63938 · /tle

For live sub-satellite position, see the globe view (requires WebGL).

§ Visibility from observer

Set your observer location to see the next 7 days of passes ≥ 10°. The values pass through the URL so the page stays shareable.

No JS? Fill the form by hand. The geolocation button needs JavaScript.